Flag for Norway Weather past 2 weeks in Drammen, Norway

Now
45 °F

Passing clouds.


Feels Like: 36 °F
Forecast: 36 / 66 °F
Wind: 23 mph from Northeast

Location: Oslo / Fornebu

Current Time: Apr 19, 2015 at 4:11:32 AM

Latest Report: Apr 19, 2015 at 3:50 AM


Visibility: N/A

Pressure: 30.45 "Hg

Humidity: 81%

Dew point: 39 °F

Location of DrammenLocation

Historic Weather in Drammen — Graph

°F

Drammen temperature yesterday

Maximum temperature yesterday: 52 °F (at 1:50 PM)
Minimum temperature yesterday: 43 °F (at 10:20 PM)
Average temperature yesterday: 47 °F

Past Weeks' High & Low Weather Summary

 TemperatureHumidityPressure
High52 °F (Apr 18, 1:50 PM)100% (Apr 4, 10:20 PM)30.48 "Hg (Apr 4, 10:20 PM)
Low37 °F (Apr 4, 3:20 AM)42% (Apr 13, 10:20 AM)29.42 "Hg (Apr 11, 8:20 AM)
Average45 °F80%30.02 "Hg
* Reported Apr 4 2:20 AM — Apr 19 2:50 AM, Drammen, Weather by CustomWeather, © 2015

Note: Actual official high and low records may vary slightly from our data, if they occured in-between our weather recording intervals... More about our weather records

Advertising

Drammen weather history for previous 24 hours

 ConditionsComfort  
Time TempWeatherWind HumidityBarometerVisibility
2:50 AM
Sun, Apr 19
46 °FOvercast.21 mph76%30.48 "HgN/A
2:20 AM45 °FOvercast.23 mph81%30.45 "HgN/A
1:50 AM45 °FOvercast.21 mph87%30.48 "HgN/A
1:20 AM45 °FPassing clouds.22 mph87%30.48 "HgN/A
12:50 AM45 °FPassing clouds.21 mph81%30.48 "HgN/A
12:20 AM45 °FOvercast.20 mph81%30.48 "HgN/A
11:50 PM
Sat, Apr 18
45 °FOvercast.21 mph87%30.48 "HgN/A
11:20 PM45 °FOvercast.21 mph87%30.48 "HgN/A
10:50 PM45 °FOvercast.22 mph93%30.48 "HgN/A
10:20 PM43 °FOvercast.22 mph93%30.45 "HgN/A
9:50 PM45 °FPassing clouds.21 mph87%30.45 "HgN/A
9:20 PM45 °FPartly sunny.21 mph87%30.45 "HgN/A
8:50 PM45 °FPartly sunny.21 mph87%30.45 "HgN/A
8:20 PM45 °FPartly sunny.21 mph87%30.45 "HgN/A
7:50 PM45 °FPartly sunny.21 mph87%30.45 "HgN/A
7:20 PM46 °FPartly sunny.20 mph82%30.45 "HgN/A
6:50 PM46 °FPartly sunny.18 mph82%30.45 "HgN/A
6:20 PM46 °FPartly sunny.16 mph82%30.45 "HgN/A
5:50 PM48 °FPartly sunny.18 mph82%30.45 "HgN/A
5:20 PM48 °FPartly sunny.18 mph82%30.45 "HgN/A
4:50 PM48 °FScattered clouds.17 mph82%30.45 "HgN/A
4:20 PM48 °FScattered clouds.17 mph82%30.45 "HgN/A
3:50 PM48 °FPassing clouds.16 mph82%30.45 "HgN/A
3:20 PM48 °FScattered clouds.15 mph82%30.45 "HgN/A
2:50 PM52 °FCool.16 mph77%30.48 "HgN/A
2:20 PM52 °FCool.13 mph77%30.48 "HgN/A
1:50 PM52 °FCool.15 mph77%30.45 "HgN/A
1:20 PM50 °FPassing clouds.16 mph82%30.45 "HgN/A
12:50 PM50 °FPartly sunny.17 mph82%30.45 "HgN/A
12:20 PM50 °FPartly sunny.18 mph88%30.45 "HgN/A
11:50 AM50 °FPartly sunny.18 mph88%30.45 "HgN/A
11:20 AM48 °FOvercast.18 mph94%30.45 "HgN/A
10:50 AM48 °FOvercast.16 mph87%30.45 "HgN/A
10:20 AM48 °FOvercast.17 mph87%30.45 "HgN/A
9:50 AM48 °FOvercast.16 mph87%30.45 "HgN/A
9:20 AM48 °FOvercast.17 mph87%30.45 "HgN/A
8:50 AM46 °FPartly sunny.16 mph93%30.45 "HgN/A
8:20 AM46 °FPartly sunny.15 mph93%30.45 "HgN/A
7:50 AM46 °FOvercast.14 mph93%30.45 "HgN/A
7:20 AM46 °FOvercast.14 mph87%30.45 "HgN/A
6:50 AM46 °FPassing clouds.12 mph76%30.42 "HgN/A
6:20 AM46 °FOvercast.10 mph76%30.42 "HgN/A
5:50 AM46 °FPassing clouds.9 mph76%30.42 "HgN/A
5:20 AM46 °FPassing clouds.9 mph71%30.42 "HgN/A
4:50 AM46 °FPassing clouds.9 mph76%30.42 "HgN/A
4:20 AM46 °FPassing clouds.12 mph71%30.42 "HgN/A
Weather by CustomWeather, © 2015

See weather overviewHow to use our weather pages